Darstellungsparameter: Aktuell verwendete Einstellungen:
Skalierung der Graphiken ... ?
xyx+y,   Skalierungsfaktor:      Skalierung: Modus: x, Faktor: 1
Darstellungszeitraum ... ?
Vom - - bis: - -   Zeitraum: 13.05.2020 - 12.06.2020
Min/Max/Avg-Anzeige ... ?
Zeige MMA aktuell
Zeige MMA Monat
Zeige MMA alles
Zeige --A aktuell
Zeige --A Monat
Zeige --A alles
Keine MMA-Anzeige
MMA:
Minimum Maximum Average (ber die Originaldaten)
MMA-Basis: 14.04.2020 - 16.05.2020
Quicknavigation für Darstellung... ?
Tage:      1T, 2T, 3T, 5T -1T -2T -3T -5T +1T +2T +3T +5T
Wochen: 1W, 2W, 3W -1W -2W -3W +1W +2W +3W
Monate: 1M, 3M, 6M -1M -3M -6M +1M +3M +6M
Jahre:    1J, 3J, 5J, 10J -1J -3J -5J -10J +1J +3J +5J +10J
Nutze für die Darstellung ... ?
Originaldaten oder ...
Mittelwerte Minima Maxima auf...
Stundenbasis Tagesbasis Wochenbasis
Monatsbasis Jahresbasis      Datenbasis: Mittelwerte auf Stundenbasis
Darstellen als:
Statistik (Auto) Statistik J:M      Darstellung:
Zur Graphik,    zurück zur Übersicht aller Sensoren.
 
Tabellarische Datenbersicht: ?
 
Sensor: Nr:Datum:Temp:Abs-Feuchte:Windchill:Wind:
Aussen-T/F 1 13-05-2020 00:00:00 5.56667 C 5.53 g/m*3 5.57 C 0.26667 km/h
2 13-05-2020 01:00:00 4.23333 C 5.34 g/m*3 4.23 C 0 km/h
3 13-05-2020 02:00:00 3.325 C 5.18 g/m*3 3.33 C 0.13333 km/h
4 13-05-2020 03:00:00 2.66667 C 5.11 g/m*3 2.67 C 0.13333 km/h
5 13-05-2020 04:00:00 2.14167 C 5.04 g/m*3 2.14 C 0.26667 km/h
6 13-05-2020 05:00:00 2.05833 C 5.12 g/m*3 2.06 C 0.13333 km/h
7 13-05-2020 06:00:00 2.91667 C 5.44 g/m*3 2.92 C 0.8 km/h
8 13-05-2020 07:00:00 3.74167 C 5.62 g/m*3 3.74 C 2.93333 km/h
9 13-05-2020 08:00:00 5.33333 C 5.88 g/m*3 5.33 C 1.33333 km/h
10 13-05-2020 09:00:00 6.41667 C 6.27 g/m*3 6.42 C 0.66667 km/h
11 13-05-2020 10:00:00 8.96667 C 6.02 g/m*3 8.97 C 2.53333 km/h
12 13-05-2020 11:00:00 11.75 C 5.9 g/m*3 11.75 C 7.1 km/h
13 13-05-2020 12:00:00 13.05 C 5.69 g/m*3 13.05 C 8.475 km/h
14 13-05-2020 13:00:00 13.64167 C 5.89 g/m*3 13.64 C 10.60833 km/h
15 13-05-2020 14:00:00 14.16667 C 5.83 g/m*3 14.17 C 10.08333 km/h
16 13-05-2020 15:00:00 14.65 C 5.77 g/m*3 14.65 C 13.43333 km/h
17 13-05-2020 16:00:00 14.875 C 5.68 g/m*3 14.88 C 11.55833 km/h
18 13-05-2020 17:00:00 14.58333 C 5.64 g/m*3 14.58 C 10.625 km/h
19 13-05-2020 18:00:00 13.725 C 5.46 g/m*3 13.73 C 11.025 km/h
20 13-05-2020 19:00:00 12.9 C 5.41 g/m*3 12.9 C 8.875 km/h
21 13-05-2020 20:00:00 12.8 C 5.54 g/m*3 12.8 C 4.93333 km/h
22 13-05-2020 21:00:00 11.775 C 6.06 g/m*3 11.78 C 8.06667 km/h
23 13-05-2020 22:00:00 10.10833 C 6.65 g/m*3 9.27 C 7.375 km/h
24 13-05-2020 23:00:00 8.83333 C 6.47 g/m*3 7.91 C 6.84167 km/h
25 14-05-2020 00:00:00 8.14167 C 6.35 g/m*3 6.66 C 8.74167 km/h
Sensor: Nr:Datum:Temp:Abs-Feuchte:Windchill:Wind:
Aussen-T/F 26 14-05-2020 01:00:00 7.41667 C 6.14 g/m*3 7.42 C 4.825 km/h
27 14-05-2020 02:00:00 6.325 C 6.01 g/m*3 6.33 C 3.475 km/h
28 14-05-2020 03:00:00 6.225 C 6.06 g/m*3 6.23 C 2 km/h
29 14-05-2020 04:00:00 6.075 C 6.02 g/m*3 6.08 C 2.4 km/h
30 14-05-2020 05:00:00 5.85833 C 5.97 g/m*3 4.93 C 5.35 km/h
31 14-05-2020 06:00:00 5.05833 C 5.81 g/m*3 5.06 C 2 km/h
32 14-05-2020 07:00:00 4.64167 C 5.89 g/m*3 4.64 C 3.21667 km/h
33 14-05-2020 08:00:00 6.58333 C 6.1 g/m*3 5.08 C 7.64167 km/h
34 14-05-2020 09:00:00 7.775 C 6.1 g/m*3 6.55 C 7.36667 km/h
35 14-05-2020 10:00:00 9.075 C 6.17 g/m*3 8.03 C 7.50833 km/h
36 14-05-2020 11:00:00 10.89167 C 6.24 g/m*3 9.8 C 9.4 km/h
37 14-05-2020 12:00:00 12.19167 C 6.17 g/m*3 12.19 C 11.425 km/h
38 14-05-2020 13:00:00 13.35 C 6.12 g/m*3 13.35 C 11.29167 km/h
39 14-05-2020 14:00:00 14.15 C 5.88 g/m*3 14.15 C 8.58333 km/h
40 14-05-2020 15:00:00 14.40833 C 5.82 g/m*3 14.41 C 8.19167 km/h
41 14-05-2020 16:00:00 14.88333 C 5.68 g/m*3 14.88 C 11.3 km/h
42 14-05-2020 17:00:00 14.39167 C 5.71 g/m*3 14.39 C 13.96667 km/h
43 14-05-2020 18:00:00 14.85833 C 5.71 g/m*3 14.86 C 13.3 km/h
44 14-05-2020 19:00:00 14.79167 C 5.69 g/m*3 14.79 C 5.23333 km/h
45 14-05-2020 20:00:00 11.91667 C 6.06 g/m*3 11.92 C 2.13333 km/h
46 14-05-2020 21:00:00 9.2 C 5.71 g/m*3 9.2 C 2.66667 km/h
47 14-05-2020 22:00:00 7.80833 C 5.56 g/m*3 7.81 C 3.46667 km/h
48 14-05-2020 23:00:00 7.11667 C 5.49 g/m*3 6.41 C 5.20833 km/h
49 15-05-2020 00:00:00 6.325 C 5.5 g/m*3 6.33 C 2.8 km/h
50 15-05-2020 01:00:00 5.45 C 5.43 g/m*3 5.45 C 3.73333 km/h
Sensor: Nr:Datum:Temp:Abs-Feuchte:Windchill:Wind:
Aussen-T/F 51 15-05-2020 02:00:00 5.125 C 5.29 g/m*3 4.2 C 5.06667 km/h
52 15-05-2020 03:00:00 4.26667 C 5.19 g/m*3 4.27 C 0.66667 km/h
53 15-05-2020 04:00:00 3.48333 C 5.1 g/m*3 3.48 C 0.26667 km/h
54 15-05-2020 05:00:00 2.50833 C 4.98 g/m*3 2.51 C 0 km/h
55 15-05-2020 06:00:00 2.15 C 5.02 g/m*3 2.15 C 0 km/h
56 15-05-2020 07:00:00 3.15833 C 5.4 g/m*3 3.16 C 1.2 km/h
57 15-05-2020 08:00:00 4.925 C 5.79 g/m*3 4.93 C 2.53333 km/h
58 15-05-2020 09:00:00 7.46667 C 6.02 g/m*3 6.85 C 5.08333 km/h
59 15-05-2020 10:00:00 10.51667 C 6.06 g/m*3 10.06 C 6.03333 km/h
60 15-05-2020 11:00:00 12.88333 C 5.97 g/m*3 12.88 C 9.11667 km/h
61 15-05-2020 12:00:00 14.1 C 5.46 g/m*3 14.1 C 13.825 km/h
62 15-05-2020 13:00:00 14.91667 C 5.69 g/m*3 14.92 C 10.88333 km/h
63 15-05-2020 14:00:00 16.00833 C 5.85 g/m*3 16.01 C 10.75833 km/h
64 15-05-2020 15:00:00 17.775 C 5.78 g/m*3 17.77 C 13.025 km/h
65 15-05-2020 16:00:00 18.525 C 5.64 g/m*3 18.52 C 14.23333 km/h
66 15-05-2020 17:00:00 18.55 C 5.34 g/m*3 18.55 C 11.83333 km/h
67 15-05-2020 18:00:00 18.05833 C 5.25 g/m*3 18.06 C 11.56667 km/h
68 15-05-2020 19:00:00 17.35833 C 5.03 g/m*3 17.36 C 9.825 km/h
69 15-05-2020 20:00:00 15.7 C 5.16 g/m*3 15.7 C 4.675 km/h
70 15-05-2020 21:00:00 12.11667 C 5.62 g/m*3 12.12 C 4.14167 km/h
71 15-05-2020 22:00:00 10.10833 C 5.85 g/m*3 10.11 C 3.2 km/h
72 15-05-2020 23:00:00 8.90833 C 5.88 g/m*3 8.91 C 2 km/h
73 16-05-2020 00:00:00 7.76667 C 5.7 g/m*3 7.77 C 3.06667 km/h
74 16-05-2020 01:00:00 6.21667 C 5.65 g/m*3 6.22 C 0.13333 km/h
75 16-05-2020 02:00:00 4.8 C 5.5 g/m*3 4.8 C 0 km/h
Sensor: Nr:Datum:Temp:Abs-Feuchte:Windchill:Wind:
Aussen-T/F 76 16-05-2020 03:00:00 4 C 5.43 g/m*3 4 C 0 km/h
77 16-05-2020 04:00:00 3.375 C 5.35 g/m*3 3.38 C 0 km/h
78 16-05-2020 05:00:00 2.86667 C 5.28 g/m*3 2.87 C 0.13333 km/h
79 16-05-2020 06:00:00 2.6 C 5.27 g/m*3 2.6 C 0 km/h
80 16-05-2020 07:00:00 2.98333 C 5.49 g/m*3 2.98 C 0 km/h
81 16-05-2020 08:00:00 4.275 C 6 g/m*3 4.28 C 0.4 km/h
82 16-05-2020 09:00:00 6.35 C 6.72 g/m*3 6.35 C 0 km/h
83 16-05-2020 10:00:00 9.875 C 6.95 g/m*3 9.88 C 1.2 km/h
84 16-05-2020 11:00:00 13.58333 C 6.17 g/m*3 13.58 C 6.71667 km/h
85 16-05-2020 12:00:00 14.65 C 6 g/m*3 14.65 C 7.375 km/h
86 16-05-2020 13:00:00 15.65833 C 6.04 g/m*3 15.66 C 7.11667 km/h
87 16-05-2020 14:00:00 17.03333 C 5.99 g/m*3 17.03 C 9 km/h
88 16-05-2020 15:00:00 18.6 C 5.7 g/m*3 18.6 C 9.95 km/h
89 16-05-2020 16:00:00 19.85833 C 6.14 g/m*3 19.86 C 7.51667 km/h
90 16-05-2020 17:00:00 18.875 C 6.28 g/m*3 18.88 C 4.41667 km/h
91 16-05-2020 18:00:00 19.41667 C 6.32 g/m*3 19.42 C 7.38333 km/h
92 16-05-2020 19:00:00 18.58333 C 6.47 g/m*3 18.58 C 6.56667 km/h
93 16-05-2020 20:00:00 17.54167 C 6.7 g/m*3 17.54 C 4.66667 km/h
94 16-05-2020 21:00:00 14.28333 C 7.11 g/m*3 14.28 C 2.26667 km/h
95 16-05-2020 22:00:00 12.81667 C 6.99 g/m*3 12.82 C 6.41667 km/h
96 16-05-2020 23:00:00 12.16667 C 7.05 g/m*3 12.17 C 4.54167 km/h
97 17-05-2020 00:00:00 11.31667 C 7.09 g/m*3 11.32 C 3.46667 km/h
98 17-05-2020 01:00:00 9.85833 C 6.99 g/m*3 9.86 C 3.73333 km/h
99 17-05-2020 02:00:00 9.14167 C 6.89 g/m*3 8.67 C 5.35833 km/h
100 17-05-2020 03:00:00 8.625 C 6.98 g/m*3 8.63 C 3.74167 km/h
Sensor: Nr:Datum:Temp:Abs-Feuchte:Windchill:Wind:
Aussen-T/F 101 17-05-2020 04:00:00 8.25833 C 6.97 g/m*3 8.26 C 3.6 km/h
102 17-05-2020 05:00:00 7.18333 C 6.78 g/m*3 7.18 C 3.6 km/h
103 17-05-2020 06:00:00 6.70833 C 6.68 g/m*3 6.71 C 3.6 km/h
104 17-05-2020 07:00:00 6.93333 C 6.84 g/m*3 6.93 C 1.73333 km/h
105 17-05-2020 08:00:00 7.49167 C 7.11 g/m*3 7.49 C 0.8 km/h
106 17-05-2020 09:00:00 9.96667 C 7.33 g/m*3 9.97 C 4.40833 km/h
107 17-05-2020 10:00:00 12.21667 C 7.06 g/m*3 12.22 C 7.50833 km/h
108 17-05-2020 11:00:00 13.23333 C 7.02 g/m*3 13.23 C 6.15833 km/h
109 17-05-2020 12:00:00 14.25833 C 6.92 g/m*3 14.26 C 7.79167 km/h
110 17-05-2020 13:00:00 15.35833 C 6.86 g/m*3 15.36 C 8.73333 km/h
111 17-05-2020 14:00:00 16.85 C 6.76 g/m*3 16.85 C 8.725 km/h
112 17-05-2020 15:00:00 18.625 C 6.59 g/m*3 18.63 C 8.74167 km/h
113 17-05-2020 16:00:00 20.13333 C 6.52 g/m*3 20.13 C 10.35833 km/h
114 17-05-2020 17:00:00 20.69167 C 6.24 g/m*3 20.69 C 9.80833 km/h
115 17-05-2020 18:00:00 20.95833 C 6.5 g/m*3 20.96 C 7.94167 km/h
116 17-05-2020 19:00:00 20.00833 C 6.5 g/m*3 20.01 C 5.89167 km/h
117 17-05-2020 20:00:00 18.46667 C 6.92 g/m*3 18.47 C 3.34167 km/h
118 17-05-2020 21:00:00 14.75833 C 7.22 g/m*3 14.76 C 6.99167 km/h
119 17-05-2020 22:00:00 12.99167 C 7.1 g/m*3 12.99 C 4.81667 km/h
120 17-05-2020 23:00:00 10.73333 C 7.14 g/m*3 10.73 C 0 km/h
121 18-05-2020 00:00:00 9.35 C 7.01 g/m*3 9.35 C 0.4 km/h
122 18-05-2020 01:00:00 8.54167 C 6.93 g/m*3 8.54 C 0.26667 km/h
123 18-05-2020 02:00:00 7.95 C 6.86 g/m*3 7.95 C 0.66667 km/h
124 18-05-2020 03:00:00 7.16667 C 6.74 g/m*3 7.17 C 0.13333 km/h
125 18-05-2020 04:00:00 6.60833 C 6.62 g/m*3 6.61 C 0.26667 km/h
Sensor: Nr:Datum:Temp:Abs-Feuchte:Windchill:Wind:
Aussen-T/F 126 18-05-2020 05:00:00 6.04167 C 6.5 g/m*3 6.04 C 0.66667 km/h
127 18-05-2020 06:00:00 5.925 C 6.56 g/m*3 5.93 C 0 km/h
128 18-05-2020 07:00:00 6.7 C 6.99 g/m*3 6.7 C 0.13333 km/h
129 18-05-2020 08:00:00 8.125 C 7.67 g/m*3 8.13 C 0 km/h
130 18-05-2020 09:00:00 10.525 C 8.51 g/m*3 10.53 C 0 km/h
131 18-05-2020 10:00:00 13.975 C 8.99 g/m*3 13.98 C 2.40833 km/h
132 18-05-2020 11:00:00 18.925 C 8.22 g/m*3 18.93 C 7.24167 km/h
133 18-05-2020 12:00:00 20.225 C 8.23 g/m*3 20.23 C 9.26667 km/h
134 18-05-2020 13:00:00 21.45 C 8.1 g/m*3 21.45 C 10.74167 km/h
135 18-05-2020 14:00:00 22.80833 C 8.11 g/m*3 22.81 C 9.94167 km/h
136 18-05-2020 15:00:00 24.43333 C 8.29 g/m*3 24.43 C 9.28333 km/h
137 18-05-2020 16:00:00 25.59167 C 8.39 g/m*3 25.59 C 10.225 km/h
138 18-05-2020 17:00:00 25.86667 C 8.64 g/m*3 25.87 C 9.80833 km/h
139 18-05-2020 18:00:00 26.05 C 9.24 g/m*3 26.05 C 8.875 km/h
140 18-05-2020 19:00:00 24.85 C 9.61 g/m*3 24.85 C 8.075 km/h
141 18-05-2020 20:00:00 22.89167 C 9.91 g/m*3 22.89 C 5.21667 km/h
142 18-05-2020 21:00:00 19.43333 C 9.89 g/m*3 19.43 C 4.95833 km/h
143 18-05-2020 22:00:00 17.025 C 9.73 g/m*3 17.02 C 5.625 km/h
144 18-05-2020 23:00:00 15.69167 C 9.68 g/m*3 15.69 C 4.80833 km/h
145 19-05-2020 00:00:00 13.85833 C 9.28 g/m*3 13.86 C 0.26667 km/h
146 19-05-2020 01:00:00 12.08333 C 8.96 g/m*3 12.08 C 2 km/h
147 19-05-2020 02:00:00 11.03333 C 8.53 g/m*3 11.03 C 1.06667 km/h
148 19-05-2020 03:00:00 9.825 C 8.16 g/m*3 9.82 C 0 km/h
149 19-05-2020 04:00:00 8.89167 C 7.92 g/m*3 8.89 C 1.46667 km/h
150 19-05-2020 05:00:00 8.31667 C 7.64 g/m*3 8.32 C 0.66667 km/h
Sensor: Nr:Datum:Temp:Abs-Feuchte:Windchill:Wind:
Aussen-T/F 151 19-05-2020 06:00:00 8.125 C 7.62 g/m*3 8.13 C 0.53333 km/h
152 19-05-2020 07:00:00 8.35 C 7.78 g/m*3 8.35 C 0.13333 km/h
153 19-05-2020 08:00:00 9.29167 C 8.29 g/m*3 9.29 C 0.53333 km/h
154 19-05-2020 09:00:00 11.55833 C 9.12 g/m*3 11.56 C 0.4 km/h
155 19-05-2020 10:00:00 15.025 C 8.71 g/m*3 15.03 C 1.46667 km/h
156 19-05-2020 11:00:00 19.51667 C 7.64 g/m*3 19.52 C 4.00833 km/h
157 19-05-2020 12:00:00 20.34167 C 7.13 g/m*3 20.34 C 3.33333 km/h
158 19-05-2020 13:00:00 21.75 C 7.16 g/m*3 21.75 C 9.54167 km/h
159 19-05-2020 14:00:00 23.225 C 7.69 g/m*3 23.23 C 11.425 km/h
160 19-05-2020 15:00:00 24.11667 C 8.58 g/m*3 24.12 C 11.7 km/h
161 19-05-2020 16:00:00 24.61667 C 9.07 g/m*3 24.62 C 14.76667 km/h
162 19-05-2020 17:00:00 25.26667 C 9.62 g/m*3 25.27 C 13.7 km/h
163 19-05-2020 18:00:00 25.43333 C 9.81 g/m*3 25.43 C 13.03333 km/h
164 19-05-2020 19:00:00 24.35 C 10.12 g/m*3 24.35 C 9.83333 km/h
165 19-05-2020 20:00:00 21.79167 C 10.45 g/m*3 21.79 C 5.75833 km/h
166 19-05-2020 21:00:00 19.225 C 10.53 g/m*3 19.23 C 2.4 km/h
167 19-05-2020 22:00:00 17 C 10.24 g/m*3 17 C 4.13333 km/h
168 19-05-2020 23:00:00 15.58333 C 10.21 g/m*3 15.58 C 0.8 km/h
169 20-05-2020 00:00:00 14.90833 C 10.32 g/m*3 14.91 C 0 km/h
170 20-05-2020 01:00:00 13.65833 C 9.9 g/m*3 13.66 C 0 km/h
171 20-05-2020 02:00:00 12.825 C 9.73 g/m*3 12.83 C 0.4 km/h
172 20-05-2020 03:00:00 12.25833 C 9.61 g/m*3 12.26 C 1.60833 km/h
173 20-05-2020 04:00:00 11.91667 C 9.58 g/m*3 11.92 C 2.28333 km/h
174 20-05-2020 05:00:00 11.3 C 9.31 g/m*3 11.3 C 0.26667 km/h
175 20-05-2020 06:00:00 11.45 C 9.49 g/m*3 11.45 C 0.13333 km/h
Sensor: Nr:Datum:Temp:Abs-Feuchte:Windchill:Wind:
Aussen-T/F 176 20-05-2020 07:00:00 11.975 C 9.89 g/m*3 11.98 C 2.26667 km/h
177 20-05-2020 08:00:00 14.78333 C 10.99 g/m*3 14.78 C 7.25 km/h
178 20-05-2020 09:00:00 16.96667 C 11.25 g/m*3 16.97 C 8.33333 km/h
179 20-05-2020 10:00:00 18.60833 C 11.47 g/m*3 18.61 C 8.88333 km/h
180 20-05-2020 11:00:00 19.60833 C 11.5 g/m*3 19.61 C 10.225 km/h
181 20-05-2020 12:00:00 20.25 C 11.53 g/m*3 20.25 C 9.80833 km/h
182 20-05-2020 13:00:00 21.15 C 11.43 g/m*3 21.15 C 11.29167 km/h
183 20-05-2020 14:00:00 21.89167 C 11.44 g/m*3 21.89 C 12.23333 km/h
184 20-05-2020 15:00:00 23.225 C 11.5 g/m*3 23.23 C 9.81667 km/h
185 20-05-2020 16:00:00 24.25 C 11.13 g/m*3 24.25 C 11.95833 km/h
186 20-05-2020 17:00:00 24.525 C 11.04 g/m*3 24.53 C 11.68333 km/h
187 20-05-2020 18:00:00 24.51667 C 10.85 g/m*3 24.52 C 8.75 km/h
188 20-05-2020 19:00:00 23.55 C 10.82 g/m*3 23.55 C 8.88333 km/h
189 20-05-2020 20:00:00 21.93333 C 10.78 g/m*3 21.93 C 4.8 km/h
190 20-05-2020 21:00:00 19.30833 C 10.73 g/m*3 19.31 C 4.40833 km/h
191 20-05-2020 22:00:00 16.49167 C 10.5 g/m*3 16.49 C 2.93333 km/h
192 20-05-2020 23:00:00 15.35 C 10.25 g/m*3 15.35 C 0.93333 km/h
193 21-05-2020 00:00:00 14.55 C 9.98 g/m*3 14.55 C 1.86667 km/h
194 21-05-2020 01:00:00 14.6 C 9.89 g/m*3 14.6 C 2.66667 km/h
195 21-05-2020 02:00:00 13.16667 C 9.63 g/m*3 13.17 C 4 km/h
196 21-05-2020 03:00:00 12.43333 C 9.51 g/m*3 12.43 C 2.93333 km/h
197 21-05-2020 04:00:00 11.41667 C 9.15 g/m*3 11.42 C 0.26667 km/h
198 21-05-2020 05:00:00 10.575 C 8.91 g/m*3 10.58 C 0 km/h
199 21-05-2020 06:00:00 10.25833 C 8.88 g/m*3 10.26 C 0 km/h
200 21-05-2020 07:00:00 10.675 C 9.23 g/m*3 10.68 C 0 km/h
Sensor: Nr:Datum:Temp:Abs-Feuchte:Windchill:Wind:
Aussen-T/F 201 21-05-2020 08:00:00 11.78333 C 9.99 g/m*3 11.78 C 0.4 km/h
202 21-05-2020 09:00:00 13.89167 C 11.05 g/m*3 13.89 C 0.66667 km/h
203 21-05-2020 10:00:00 17.70833 C 11.75 g/m*3 17.71 C 4.83333 km/h
204 21-05-2020 11:00:00 21.23333 C 11.7 g/m*3 21.23 C 10.75833 km/h
205 21-05-2020 12:00:00 22.15833 C 11.47 g/m*3 22.16 C 8.06667 km/h
206 21-05-2020 13:00:00 23.24167 C 11.48 g/m*3 23.24 C 7.90833 km/h
207 21-05-2020 14:00:00 24.625 C 11.76 g/m*3 24.63 C 7.525 km/h
208 21-05-2020 15:00:00 26.85833 C 11.66 g/m*3 26.86 C 7.25833 km/h
209 21-05-2020 16:00:00 28.06667 C 11.3 g/m*3 28.07 C 7.93333 km/h
210 21-05-2020 17:00:00 28.7 C 10.83 g/m*3 28.7 C 7.93333 km/h
211 21-05-2020 18:00:00 28.06667 C 10.62 g/m*3 28.07 C 7.65 km/h
212 21-05-2020 19:00:00 28.08333 C 11.45 g/m*3 28.08 C 4.26667 km/h
213 21-05-2020 20:00:00 25.30833 C 12.57 g/m*3 25.31 C 2.4 km/h
214 21-05-2020 21:00:00 21.2 C 12.06 g/m*3 21.2 C 5.08333 km/h
215 21-05-2020 22:00:00 19.1 C 11.87 g/m*3 19.1 C 5.075 km/h
216 21-05-2020 23:00:00 18.675 C 11.71 g/m*3 18.68 C 2.8 km/h
217 22-05-2020 00:00:00 17.55833 C 11.37 g/m*3 17.56 C 1.2 km/h
218 22-05-2020 01:00:00 16.225 C 11.03 g/m*3 16.23 C 0 km/h
219 22-05-2020 02:00:00 15.3 C 10.99 g/m*3 15.3 C 0 km/h
220 22-05-2020 03:00:00 14.60833 C 10.76 g/m*3 14.61 C 0 km/h
221 22-05-2020 04:00:00 13.58333 C 10.41 g/m*3 13.58 C 0 km/h
222 22-05-2020 05:00:00 12.95 C 10.3 g/m*3 12.95 C 0 km/h
223 22-05-2020 06:00:00 13.25 C 10.73 g/m*3 13.25 C 0 km/h
224 22-05-2020 07:00:00 14.95 C 11.81 g/m*3 14.95 C 0 km/h
225 22-05-2020 08:00:00 17.55833 C 12.5 g/m*3 17.56 C 3.86667 km/h
Sensor: Nr:Datum:Temp:Abs-Feuchte:Windchill:Wind:
Aussen-T/F 226 22-05-2020 09:00:00 19.91667 C 12.96 g/m*3 19.92 C 6.175 km/h
227 22-05-2020 10:00:00 21.65 C 13.66 g/m*3 21.65 C 1.06667 km/h
228 22-05-2020 11:00:00 23.675 C 13.88 g/m*3 23.68 C 6.85 km/h
229 22-05-2020 12:00:00 24.51667 C 13.65 g/m*3 24.52 C 7.64167 km/h
230 22-05-2020 13:00:00 25.15833 C 14.19 g/m*3 25.16 C 6.05 km/h
231 22-05-2020 14:00:00 26.25833 C 14.22 g/m*3 26.26 C 8.05 km/h
232 22-05-2020 15:00:00 26.36667 C 13.5 g/m*3 26.37 C 11.96667 km/h
233 22-05-2020 16:00:00 26.08333 C 13.55 g/m*3 26.08 C 12.23333 km/h
234 22-05-2020 17:00:00 26.23333 C 13.89 g/m*3 26.23 C 7.375 km/h
235 22-05-2020 18:00:00 25.11667 C 14.48 g/m*3 25.12 C 7.79167 km/h
236 22-05-2020 19:00:00 24.275 C 14.16 g/m*3 24.28 C 7.65833 km/h
237 22-05-2020 20:00:00 21.25833 C 13.84 g/m*3 21.26 C 13.15833 km/h
238 22-05-2020 21:00:00 18.35 C 13.6 g/m*3 18.35 C 3.08333 km/h
239 22-05-2020 22:00:00 17.5 C 13.73 g/m*3 17.5 C 1.86667 km/h
240 22-05-2020 23:00:00 17.09167 C 13.63 g/m*3 17.09 C 2.4 km/h
241 23-05-2020 00:00:00 16.7 C 13.45 g/m*3 16.7 C 1.86667 km/h
242 23-05-2020 01:00:00 16.125 C 12.95 g/m*3 16.13 C 1.86667 km/h
243 23-05-2020 02:00:00 14.2 C 11.47 g/m*3 14.2 C 4.80833 km/h
244 23-05-2020 03:00:00 13.65833 C 11.22 g/m*3 13.66 C 4.68333 km/h
245 23-05-2020 04:00:00 13.66667 C 11.32 g/m*3 13.67 C 4.95 km/h
246 23-05-2020 05:00:00 12.01667 C 10.11 g/m*3 12.02 C 8.75833 km/h
247 23-05-2020 06:00:00 11.6 C 9.94 g/m*3 11.6 C 5.23333 km/h
248 23-05-2020 07:00:00 12.35 C 10.48 g/m*3 12.35 C 2.53333 km/h
249 23-05-2020 08:00:00 13.06667 C 10.94 g/m*3 13.07 C 1.6 km/h
250 23-05-2020 09:00:00 12.975 C 10.76 g/m*3 12.98 C 3.875 km/h
Sensor: Nr:Datum:Temp:Abs-Feuchte:Windchill:Wind:
Aussen-T/F 251 23-05-2020 10:00:00 12.5 C 10.04 g/m*3 12.5 C 8.16667 km/h
252 23-05-2020 11:00:00 11.89167 C 9.74 g/m*3 11.89 C 7.51667 km/h
253 23-05-2020 12:00:00 12.325 C 9.72 g/m*3 12.33 C 7.51667 km/h
254 23-05-2020 13:00:00 12.91667 C 9.88 g/m*3 12.92 C 8.6 km/h
255 23-05-2020 14:00:00 13.71667 C 9.9 g/m*3 13.72 C 11.825 km/h
256 23-05-2020 15:00:00 14.925 C 10.02 g/m*3 14.93 C 14.23333 km/h
257 23-05-2020 16:00:00 15.95833 C 9.83 g/m*3 15.96 C 11.425 km/h
258 23-05-2020 17:00:00 15.81667 C 10.05 g/m*3 15.82 C 12.63333 km/h
259 23-05-2020 18:00:00 15.925 C 10.18 g/m*3 15.93 C 11.69167 km/h
260 23-05-2020 19:00:00 15.40833 C 9.96 g/m*3 15.41 C 11.03333 km/h
261 23-05-2020 20:00:00 14.66667 C 9.81 g/m*3 14.67 C 10.35 km/h
262 23-05-2020 21:00:00 13.24167 C 9.35 g/m*3 13.24 C 8.45833 km/h
263 23-05-2020 22:00:00 11.91667 C 8.97 g/m*3 11.92 C 6.84167 km/h
264 23-05-2020 23:00:00 11.05 C 8.78 g/m*3 11.05 C 5.23333 km/h
265 24-05-2020 00:00:00 10.48333 C 8.62 g/m*3 10.48 C 4.00833 km/h
266 24-05-2020 01:00:00 10.13333 C 8.32 g/m*3 10.13 C 4.14167 km/h
267 24-05-2020 02:00:00 10.18333 C 7.87 g/m*3 9.26 C 7.8 km/h
268 24-05-2020 03:00:00 10.46667 C 7.77 g/m*3 9.32 C 9.26667 km/h
269 24-05-2020 04:00:00 10.30833 C 7.6 g/m*3 9.2 C 8.875 km/h
270 24-05-2020 05:00:00 10.21667 C 7.6 g/m*3 8.51 C 12.5 km/h
271 24-05-2020 06:00:00 10.25833 C 7.76 g/m*3 9.35 C 7.8 km/h
272 24-05-2020 07:00:00 10.3 C 7.86 g/m*3 8.98 C 10.075 km/h
273 24-05-2020 08:00:00 11.14167 C 8.16 g/m*3 11.14 C 9.55 km/h
274 24-05-2020 09:00:00 12.74167 C 8.58 g/m*3 12.74 C 13.15833 km/h
275 24-05-2020 10:00:00 14.41667 C 8.86 g/m*3 14.42 C 13.3 km/h
Sensor: Nr:Datum:Temp:Abs-Feuchte:Windchill:Wind:
Aussen-T/F 276 24-05-2020 11:00:00 15.55 C 8.19 g/m*3 15.55 C 11.69167 km/h
277 24-05-2020 12:00:00 16.83333 C 8.02 g/m*3 16.83 C 13.7 km/h
278 24-05-2020 13:00:00 17.54167 C 8.06 g/m*3 17.54 C 12.23333 km/h
279 24-05-2020 14:00:00 17.00833 C 8.16 g/m*3 17.01 C 11.83333 km/h
280 24-05-2020 15:00:00 16.89167 C 8.46 g/m*3 16.89 C 12.1 km/h
281 24-05-2020 16:00:00 16.65833 C 8.85 g/m*3 16.66 C 13.43333 km/h
282 24-05-2020 17:00:00 16.64167 C 9.15 g/m*3 16.64 C 9.68333 km/h
283 24-05-2020 18:00:00 16.14167 C 9.7 g/m*3 16.14 C 8.06667 km/h
284 24-05-2020 19:00:00 14.50833 C 10.45 g/m*3 14.51 C 2.26667 km/h
285 24-05-2020 20:00:00 14.75 C 10.33 g/m*3 14.75 C 6.175 km/h
286 24-05-2020 21:00:00 14.65833 C 10.17 g/m*3 14.66 C 3.88333 km/h
287 24-05-2020 22:00:00 14.13333 C 10.15 g/m*3 14.13 C 3.46667 km/h
288 24-05-2020 23:00:00 14.08333 C 10.15 g/m*3 14.08 C 3.74167 km/h
289 25-05-2020 00:00:00 13.525 C 10.14 g/m*3 13.53 C 1.46667 km/h
290 25-05-2020 01:00:00 13 C 10.05 g/m*3 13 C 0.8 km/h
291 25-05-2020 02:00:00 12.93333 C 10.05 g/m*3 12.93 C 1.86667 km/h
292 25-05-2020 03:00:00 13.275 C 10.11 g/m*3 13.28 C 2.26667 km/h
293 25-05-2020 04:00:00 13.30833 C 10.07 g/m*3 13.31 C 2.4 km/h
294 25-05-2020 05:00:00 13.24167 C 10.06 g/m*3 13.24 C 1.86667 km/h
295 25-05-2020 06:00:00 13.3 C 10.16 g/m*3 13.3 C 1.06667 km/h
296 25-05-2020 07:00:00 13.8 C 10.32 g/m*3 13.8 C 3.61667 km/h
297 25-05-2020 08:00:00 14.68333 C 10.43 g/m*3 14.68 C 6.45 km/h
298 25-05-2020 09:00:00 15.45 C 10.53 g/m*3 15.45 C 8.45833 km/h
299 25-05-2020 10:00:00 15.89167 C 10.5 g/m*3 15.89 C 11.56667 km/h
300 25-05-2020 11:00:00 16.48333 C 10.54 g/m*3 16.48 C 9.69167 km/h
Sensor: Nr:Datum:Temp:Abs-Feuchte:Windchill:Wind:
Aussen-T/F 301 25-05-2020 12:00:00 17.05833 C 10.49 g/m*3 17.06 C 11.43333 km/h
302 25-05-2020 13:00:00 17.56667 C 10.38 g/m*3 17.57 C 9.7 km/h
303 25-05-2020 14:00:00 18.04167 C 10.18 g/m*3 18.04 C 11.025 km/h
304 25-05-2020 15:00:00 18.49167 C 10.19 g/m*3 18.49 C 11.68333 km/h
305 25-05-2020 16:00:00 19.775 C 10.15 g/m*3 19.77 C 15.03333 km/h
306 25-05-2020 17:00:00 20.46667 C 10.29 g/m*3 20.47 C 12.35833 km/h
307 25-05-2020 18:00:00 20.41667 C 10.14 g/m*3 20.42 C 11.3 km/h
308 25-05-2020 19:00:00 20.03333 C 9.62 g/m*3 20.03 C 11.825 km/h
309 25-05-2020 20:00:00 18.81667 C 9.38 g/m*3 18.82 C 6.3 km/h
310 25-05-2020 21:00:00 16.50833 C 9.25 g/m*3 16.51 C 1.06667 km/h
311 25-05-2020 22:00:00 13.975 C 9.1 g/m*3 13.98 C 1.06667 km/h
312 25-05-2020 23:00:00 12.48333 C 8.84 g/m*3 12.48 C 0.13333 km/h
313 26-05-2020 00:00:00 11.04167 C 8.56 g/m*3 11.04 C 0 km/h
314 26-05-2020 01:00:00 9.83333 C 8.24 g/m*3 9.83 C 0 km/h
315 26-05-2020 02:00:00 8.75833 C 7.9 g/m*3 8.76 C 0 km/h
316 26-05-2020 03:00:00 8.13333 C 7.73 g/m*3 8.13 C 0 km/h
317 26-05-2020 04:00:00 7.71667 C 7.62 g/m*3 7.72 C 0 km/h
318 26-05-2020 05:00:00 7.34167 C 7.47 g/m*3 7.34 C 0 km/h
319 26-05-2020 06:00:00 7.3 C 7.51 g/m*3 7.3 C 0 km/h
320 26-05-2020 07:00:00 7.74167 C 7.76 g/m*3 7.74 C 0 km/h
321 26-05-2020 08:00:00 8.825 C 8.37 g/m*3 8.82 C 0 km/h
322 26-05-2020 09:00:00 10.41667 C 9.23 g/m*3 10.42 C 0.13333 km/h
323 26-05-2020 10:00:00 13.96667 C 9.69 g/m*3 13.97 C 4.55833 km/h
324 26-05-2020 11:00:00 16.83333 C 9.13 g/m*3 16.83 C 7.51667 km/h
325 26-05-2020 12:00:00 18.05 C 8.61 g/m*3 18.05 C 8.6 km/h
Sensor: Nr:Datum:Temp:Abs-Feuchte:Windchill:Wind:
Aussen-T/F 326 26-05-2020 13:00:00 18.89167 C 8.45 g/m*3 18.89 C 10.49167 km/h
327 26-05-2020 14:00:00 19.84167 C 8.56 g/m*3 19.84 C 11.28333 km/h
328 26-05-2020 15:00:00 21.475 C 8.77 g/m*3 21.48 C 10.63333 km/h
329 26-05-2020 16:00:00 22.18333 C 8.99 g/m*3 22.18 C 9.93333 km/h
330 26-05-2020 17:00:00 22.55 C 9.21 g/m*3 22.55 C 8.71667 km/h
331 26-05-2020 18:00:00 22.99167 C 9.28 g/m*3 22.99 C 9.81667 km/h
332 26-05-2020 19:00:00 21.80833 C 8.91 g/m*3 21.81 C 8.875 km/h
333 26-05-2020 20:00:00 20.13333 C 9.22 g/m*3 20.13 C 4.825 km/h
334 26-05-2020 21:00:00 16.51667 C 8.97 g/m*3 16.52 C 3.73333 km/h
335 26-05-2020 22:00:00 14.61667 C 8.79 g/m*3 14.62 C 3.6 km/h
336 26-05-2020 23:00:00 13.05833 C 8.66 g/m*3 13.06 C 0 km/h
337 27-05-2020 00:00:00 11.75833 C 8.49 g/m*3 11.76 C 0 km/h
338 27-05-2020 01:00:00 10.675 C 8.2 g/m*3 10.68 C 0 km/h
339 27-05-2020 02:00:00 9.75 C 8.01 g/m*3 9.75 C 0 km/h
340 27-05-2020 03:00:00 9.25833 C 7.92 g/m*3 9.26 C 0 km/h
341 27-05-2020 04:00:00 8.6 C 7.77 g/m*3 8.6 C 0 km/h
342 27-05-2020 05:00:00 7.93333 C 7.55 g/m*3 7.93 C 0 km/h
343 27-05-2020 06:00:00 7.98333 C 7.69 g/m*3 7.98 C 0 km/h
344 27-05-2020 07:00:00 8.35833 C 7.95 g/m*3 8.36 C 0 km/h
345 27-05-2020 08:00:00 9.49167 C 8.57 g/m*3 9.49 C 0 km/h
346 27-05-2020 09:00:00 11.275 C 9.48 g/m*3 11.28 C 0 km/h
347 27-05-2020 10:00:00 15.03333 C 10.25 g/m*3 15.03 C 0.93333 km/h
348 27-05-2020 11:00:00 19.08333 C 8.71 g/m*3 19.08 C 6.56667 km/h
349 27-05-2020 12:00:00 20.35833 C 7.88 g/m*3 20.36 C 9.28333 km/h
350 27-05-2020 13:00:00 21.125 C 7.84 g/m*3 21.13 C 8.33333 km/h
Sensor: Nr:Datum:Temp:Abs-Feuchte:Windchill:Wind:
Aussen-T/F 351 27-05-2020 14:00:00 22.14167 C 7.55 g/m*3 22.14 C 8.48333 km/h
352 27-05-2020 15:00:00 24 C 6.91 g/m*3 24 C 8.06667 km/h
353 27-05-2020 16:00:00 25.45 C 7.52 g/m*3 25.45 C 7.925 km/h
354 27-05-2020 17:00:00 26.05833 C 8.16 g/m*3 26.06 C 8.06667 km/h
355 27-05-2020 18:00:00 25.3 C 8.6 g/m*3 25.3 C 5.23333 km/h
356 27-05-2020 19:00:00 23.89167 C 8.69 g/m*3 23.89 C 6.71667 km/h
357 27-05-2020 20:00:00 22.9 C 8.99 g/m*3 22.9 C 6.85 km/h
358 27-05-2020 21:00:00 20.225 C 9.51 g/m*3 20.23 C 4.40833 km/h
359 27-05-2020 22:00:00 18.30833 C 9.62 g/m*3 18.31 C 2.66667 km/h
360 27-05-2020 23:00:00 16.70833 C 9.82 g/m*3 16.71 C 3.6 km/h
361 28-05-2020 00:00:00 15.59167 C 9.86 g/m*3 15.59 C 2.13333 km/h
362 28-05-2020 01:00:00 15.71667 C 9.91 g/m*3 15.72 C 2.8 km/h
363 28-05-2020 02:00:00 15.44167 C 10 g/m*3 15.44 C 0.8 km/h
364 28-05-2020 03:00:00 15.21667 C 10.11 g/m*3 15.22 C 1.33333 km/h
365 28-05-2020 04:00:00 15.13333 C 9.86 g/m*3 15.13 C 2.40833 km/h
366 28-05-2020 05:00:00 13.75 C 8.77 g/m*3 13.75 C 2.93333 km/h
367 28-05-2020 06:00:00 12.64167 C 8.44 g/m*3 12.64 C 2.8 km/h
368 28-05-2020 07:00:00 12.56667 C 8.36 g/m*3 12.57 C 3.61667 km/h
369 28-05-2020 08:00:00 13.58333 C 8.38 g/m*3 13.58 C 8.60833 km/h
370 28-05-2020 09:00:00 14.50833 C 8.68 g/m*3 14.51 C 4.80833 km/h
371 28-05-2020 10:00:00 16.475 C 8.62 g/m*3 16.48 C 5.21667 km/h
372 28-05-2020 11:00:00 18.35 C 7.02 g/m*3 18.35 C 10.49167 km/h
373 28-05-2020 12:00:00 18.95 C 7.22 g/m*3 18.95 C 11.81667 km/h
374 28-05-2020 13:00:00 19.69167 C 7.19 g/m*3 19.69 C 10.06667 km/h
375 28-05-2020 14:00:00 20.875 C 6.7 g/m*3 20.88 C 12.48333 km/h
Sensor: Nr:Datum:Temp:Abs-Feuchte:Windchill:Wind:
Aussen-T/F 376 28-05-2020 15:00:00 22.25833 C 6.25 g/m*3 22.26 C 14.36667 km/h
377 28-05-2020 16:00:00 23.41667 C 5.86 g/m*3 23.42 C 15.56667 km/h
378 28-05-2020 17:00:00 23.61667 C 5.64 g/m*3 23.62 C 15.56667 km/h
379 28-05-2020 18:00:00 23.45833 C 5.49 g/m*3 23.46 C 15.7 km/h
380 28-05-2020 19:00:00 22.11667 C 5.58 g/m*3 22.12 C 16.63333 km/h
381 28-05-2020 20:00:00 20.70833 C 5.73 g/m*3 20.71 C 12.5 km/h
382 28-05-2020 21:00:00 18.46667 C 6.29 g/m*3 18.47 C 5.24167 km/h
383 28-05-2020 22:00:00 14.53333 C 6.66 g/m*3 14.53 C 0.93333 km/h
384 28-05-2020 23:00:00 12.725 C 6.75 g/m*3 12.73 C 3.06667 km/h
385 29-05-2020 00:00:00 11.64167 C 6.84 g/m*3 11.64 C 2.13333 km/h
386 29-05-2020 01:00:00 10.325 C 6.81 g/m*3 10.33 C 0.13333 km/h
387 29-05-2020 02:00:00 9.21667 C 6.76 g/m*3 9.22 C 0 km/h
388 29-05-2020 03:00:00 8.15833 C 6.67 g/m*3 8.16 C 0 km/h
389 29-05-2020 04:00:00 7.36667 C 6.63 g/m*3 7.37 C 0 km/h
390 29-05-2020 05:00:00 6.81667 C 6.61 g/m*3 6.82 C 0.13333 km/h
391 29-05-2020 06:00:00 6.75 C 6.74 g/m*3 6.75 C 0 km/h
392 29-05-2020 07:00:00 7.325 C 7.12 g/m*3 7.33 C 0 km/h
393 29-05-2020 08:00:00 8.75833 C 7.78 g/m*3 8.76 C 0 km/h
394 29-05-2020 09:00:00 11.33333 C 8.45 g/m*3 11.33 C 0.66667 km/h
395 29-05-2020 10:00:00 16.325 C 8.46 g/m*3 16.33 C 6.95833 km/h
396 29-05-2020 11:00:00 18.86667 C 7.68 g/m*3 18.87 C 13.025 km/h
397 29-05-2020 12:00:00 19.23333 C 7.01 g/m*3 19.23 C 12.89167 km/h
398 29-05-2020 13:00:00 20.00833 C 6.79 g/m*3 20.01 C 14.36667 km/h
399 29-05-2020 14:00:00 20.7 C 6.96 g/m*3 20.7 C 13.96667 km/h
400 29-05-2020 15:00:00 22.11667 C 7.08 g/m*3 22.12 C 12.225 km/h
Sensor: Nr:Datum:Temp:Abs-Feuchte:Windchill:Wind:
Aussen-T/F 401 29-05-2020 16:00:00 23.10833 C 7 g/m*3 23.11 C 12.23333 km/h
402 29-05-2020 17:00:00 23.25833 C 7.02 g/m*3 23.26 C 9.66667 km/h
403 29-05-2020 18:00:00 23.49167 C 6.5 g/m*3 23.49 C 13.83333 km/h
404 29-05-2020 19:00:00 22.7 C 5.96 g/m*3 22.7 C 10.225 km/h
405 29-05-2020 20:00:00 21.45833 C 6.02 g/m*3 21.46 C 5.225 km/h
406 29-05-2020 21:00:00 17.75 C 6.81 g/m*3 17.75 C 3.06667 km/h
407 29-05-2020 22:00:00 14.65833 C 6.38 g/m*3 14.66 C 4.95 km/h
408 29-05-2020 23:00:00 13.61667 C 6.67 g/m*3 13.62 C 4.275 km/h
409 30-05-2020 00:00:00 13.125 C 6.94 g/m*3 13.13 C 2.26667 km/h
410 30-05-2020 01:00:00 12.29167 C 6.86 g/m*3 12.29 C 2.4 km/h
411 30-05-2020 02:00:00 11.275 C 6.8 g/m*3 11.28 C 1.86667 km/h
412 30-05-2020 03:00:00 10.55833 C 6.71 g/m*3 10.56 C 2.66667 km/h
413 30-05-2020 04:00:00 9.63333 C 6.69 g/m*3 9.63 C 2.4 km/h
414 30-05-2020 05:00:00 8.675 C 6.69 g/m*3 8.68 C 0 km/h
415 30-05-2020 06:00:00 8.11667 C 6.89 g/m*3 8.12 C 0 km/h
416 30-05-2020 07:00:00 8.61667 C 7.34 g/m*3 8.62 C 0 km/h
417 30-05-2020 08:00:00 10.175 C 7.97 g/m*3 10.18 C 0.13333 km/h
418 30-05-2020 09:00:00 13.26667 C 8.38 g/m*3 13.27 C 3.36667 km/h
419 30-05-2020 10:00:00 18.24167 C 7.8 g/m*3 18.24 C 9.825 km/h
420 30-05-2020 11:00:00 19.325 C 6.78 g/m*3 19.33 C 20.24167 km/h
421 30-05-2020 12:00:00 19.71667 C 6.81 g/m*3 19.72 C 15.7 km/h
422 30-05-2020 13:00:00 20.275 C 6.89 g/m*3 20.27 C 18.36667 km/h
423 30-05-2020 14:00:00 21.1 C 6.76 g/m*3 21.1 C 16.23333 km/h
424 30-05-2020 15:00:00 22.05 C 6.97 g/m*3 22.05 C 15.15833 km/h
425 30-05-2020 16:00:00 22.44167 C 7.05 g/m*3 22.44 C 19.7 km/h
Sensor: Nr:Datum:Temp:Abs-Feuchte:Windchill:Wind:
Aussen-T/F 426 30-05-2020 17:00:00 22.36667 C 6.81 g/m*3 22.37 C 18.23333 km/h
427 30-05-2020 18:00:00 21.54167 C 7.07 g/m*3 21.54 C 11.14167 km/h
428 30-05-2020 19:00:00 20.35 C 7.35 g/m*3 20.35 C 8.2 km/h
429 30-05-2020 20:00:00 19.51667 C 7.14 g/m*3 19.52 C 3.89167 km/h
430 30-05-2020 21:00:00 16.59167 C 6.99 g/m*3 16.59 C 1.6 km/h
431 30-05-2020 22:00:00 14.08333 C 6.83 g/m*3 14.08 C 3.2 km/h
432 30-05-2020 23:00:00 13.325 C 6.74 g/m*3 13.33 C 4.53333 km/h
433 31-05-2020 00:00:00 12.18333 C 6.84 g/m*3 12.18 C 3.2 km/h
434 31-05-2020 01:00:00 10.56667 C 6.89 g/m*3 10.57 C 0.8 km/h
435 31-05-2020 02:00:00 9.41667 C 6.84 g/m*3 9.42 C 0 km/h
436 31-05-2020 03:00:00 8.5 C 6.83 g/m*3 8.5 C 0 km/h
437 31-05-2020 04:00:00 8.9 C 7.15 g/m*3 8.9 C 0 km/h
438 31-05-2020 05:00:00 9.11667 C 7.31 g/m*3 9.12 C 0.13333 km/h
439 31-05-2020 06:00:00 8.63333 C 7.19 g/m*3 8.63 C 0.26667 km/h
440 31-05-2020 07:00:00 8.4 C 7.44 g/m*3 8.4 C 0 km/h
441 31-05-2020 08:00:00 10.375 C 8.24 g/m*3 10.38 C 0.13333 km/h
442 31-05-2020 09:00:00 12.8 C 8.55 g/m*3 12.8 C 2.41667 km/h
443 31-05-2020 10:00:00 16.09167 C 7.68 g/m*3 16.09 C 10.875 km/h
444 31-05-2020 11:00:00 17.45 C 7.47 g/m*3 17.45 C 13.16667 km/h
445 31-05-2020 12:00:00 17.825 C 7.16 g/m*3 17.83 C 12.76667 km/h
446 31-05-2020 13:00:00 18.775 C 6.9 g/m*3 18.77 C 12.75833 km/h
447 31-05-2020 14:00:00 19.7 C 7.16 g/m*3 19.7 C 17.03333 km/h
448 31-05-2020 15:00:00 20.88333 C 7.73 g/m*3 20.88 C 15.43333 km/h
449 31-05-2020 16:00:00 21.35 C 7.93 g/m*3 21.35 C 14.49167 km/h
450 31-05-2020 17:00:00 21.60833 C 7.72 g/m*3 21.61 C 15.425 km/h
Sensor: Nr:Datum:Temp:Abs-Feuchte:Windchill:Wind:
Aussen-T/F 451 31-05-2020 18:00:00 21.86667 C 7.66 g/m*3 21.87 C 14.36667 km/h
452 31-05-2020 19:00:00 21.2 C 7.63 g/m*3 21.2 C 11.43333 km/h
453 31-05-2020 20:00:00 20.3 C 7.89 g/m*3 20.3 C 7.24167 km/h
454 31-05-2020 21:00:00 17.84167 C 8.18 g/m*3 17.84 C 2.4 km/h
455 31-05-2020 22:00:00 15.11667 C 8.01 g/m*3 15.12 C 2 km/h
456 31-05-2020 23:00:00 13.88333 C 7.94 g/m*3 13.88 C 1.33333 km/h
457 01-06-2020 00:00:00 12.99167 C 7.88 g/m*3 12.99 C 3.2 km/h
458 01-06-2020 01:00:00 11.89167 C 7.84 g/m*3 11.89 C 1.33333 km/h
459 01-06-2020 02:00:00 10.68333 C 7.72 g/m*3 10.68 C 0 km/h
460 01-06-2020 03:00:00 9.95 C 7.64 g/m*3 9.95 C 0 km/h
461 01-06-2020 04:00:00 9.19167 C 7.52 g/m*3 9.19 C 0 km/h
462 01-06-2020 05:00:00 8.53333 C 7.44 g/m*3 8.53 C 0 km/h
463 01-06-2020 06:00:00 8.45 C 7.6 g/m*3 8.45 C 0 km/h
464 01-06-2020 07:00:00 9.125 C 8.1 g/m*3 9.13 C 0 km/h
465 01-06-2020 08:00:00 10.675 C 8.9 g/m*3 10.68 C 0.4 km/h
466 01-06-2020 09:00:00 14.175 C 9.59 g/m*3 14.18 C 3.20833 km/h
467 01-06-2020 10:00:00 18.43333 C 9.77 g/m*3 18.43 C 6.975 km/h
468 01-06-2020 11:00:00 21.175 C 9.31 g/m*3 21.18 C 7.65 km/h
469 01-06-2020 12:00:00 22.375 C 9.22 g/m*3 22.38 C 10.225 km/h
470 01-06-2020 13:00:00 23.23333 C 9.34 g/m*3 23.23 C 10.88333 km/h
471 01-06-2020 14:00:00 24.26667 C 9.15 g/m*3 24.27 C 11.29167 km/h
472 01-06-2020 15:00:00 25.64167 C 8.91 g/m*3 25.64 C 12.5 km/h
473 01-06-2020 16:00:00 26.86667 C 8.83 g/m*3 26.87 C 12.35833 km/h
474 01-06-2020 17:00:00 26.975 C 8.91 g/m*3 26.98 C 13.3 km/h
475 01-06-2020 18:00:00 27.04167 C 8.79 g/m*3 27.04 C 12.9 km/h
Sensor: Nr:Datum:Temp:Abs-Feuchte:Windchill:Wind:
Aussen-T/F 476 01-06-2020 19:00:00 26.13333 C 8.77 g/m*3 26.13 C 12.63333 km/h
477 01-06-2020 20:00:00 25.04167 C 9.56 g/m*3 25.04 C 6.7 km/h
478 01-06-2020 21:00:00 21.15833 C 8.92 g/m*3 21.16 C 4.28333 km/h
479 01-06-2020 22:00:00 18.5 C 8.31 g/m*3 18.5 C 4.4 km/h
480 01-06-2020 23:00:00 16.43333 C 8.45 g/m*3 16.43 C 2 km/h
481 02-06-2020 00:00:00 16.1 C 8.53 g/m*3 16.1 C 1.6 km/h
482 02-06-2020 01:00:00 15.44167 C 8.48 g/m*3 15.44 C 2.8 km/h
483 02-06-2020 02:00:00 14.21667 C 8.52 g/m*3 14.22 C 1.33333 km/h
484 02-06-2020 03:00:00 12.66667 C 8.44 g/m*3 12.67 C 0 km/h
485 02-06-2020 04:00:00 11.31667 C 8.34 g/m*3 11.32 C 0 km/h
486 02-06-2020 05:00:00 10.60833 C 8.3 g/m*3 10.61 C 0.26667 km/h
487 02-06-2020 06:00:00 10.6 C 8.56 g/m*3 10.6 C 0.13333 km/h
488 02-06-2020 07:00:00 11.075 C 8.92 g/m*3 11.08 C 0.26667 km/h
489 02-06-2020 08:00:00 12.39167 C 9.57 g/m*3 12.39 C 0 km/h
490 02-06-2020 09:00:00 14.75833 C 10.37 g/m*3 14.76 C 0 km/h
491 02-06-2020 10:00:00 19.225 C 10.53 g/m*3 19.23 C 4.025 km/h
492 02-06-2020 11:00:00 23 C 9.51 g/m*3 23 C 8.60833 km/h
493 02-06-2020 12:00:00 23.95833 C 9.35 g/m*3 23.96 C 11.025 km/h
494 02-06-2020 13:00:00 25.10833 C 9.53 g/m*3 25.11 C 9.26667 km/h
495 02-06-2020 14:00:00 26.29167 C 9.28 g/m*3 26.29 C 12.35833 km/h
496 02-06-2020 15:00:00 27.96667 C 9.07 g/m*3 27.97 C 9.8 km/h
497 02-06-2020 16:00:00 29.26667 C 8.84 g/m*3 29.27 C 9.28333 km/h
498 02-06-2020 17:00:00 30.33333 C 8.57 g/m*3 30.33 C 6.69167 km/h
499 02-06-2020 18:00:00 28.85 C 8.55 g/m*3 28.85 C 7.11667 km/h
500 02-06-2020 19:00:00 28.41667 C 9.6 g/m*3 28.42 C 4.01667 km/h
Sensor: Nr:Datum:Temp:Abs-Feuchte:Windchill:Wind:
Aussen-T/F 501 02-06-2020 20:00:00 24.4 C 10.07 g/m*3 24.4 C 5.6 km/h
502 02-06-2020 21:00:00 21.53333 C 9.27 g/m*3 21.53 C 5.74167 km/h
503 02-06-2020 22:00:00 19.28333 C 9.45 g/m*3 19.28 C 1.2 km/h
504 02-06-2020 23:00:00 17.6 C 9.55 g/m*3 17.6 C 0 km/h
505 03-06-2020 00:00:00 16.41667 C 9.35 g/m*3 16.42 C 0 km/h
506 03-06-2020 01:00:00 15.61667 C 9.54 g/m*3 15.62 C 2.675 km/h
507 03-06-2020 02:00:00 15.58333 C 9.82 g/m*3 15.58 C 0.93333 km/h
508 03-06-2020 03:00:00 14.60833 C 9.81 g/m*3 14.61 C 0.26667 km/h
509 03-06-2020 04:00:00 14.075 C 9.82 g/m*3 14.08 C 0 km/h
510 03-06-2020 05:00:00 14 C 9.85 g/m*3 14 C 0.13333 km/h
511 03-06-2020 06:00:00 13.65 C 9.89 g/m*3 13.65 C 0 km/h
512 03-06-2020 07:00:00 14.20833 C 10.52 g/m*3 14.21 C 0 km/h
513 03-06-2020 08:00:00 15.79167 C 11.26 g/m*3 15.79 C 0.26667 km/h
514 03-06-2020 09:00:00 18.18333 C 11.15 g/m*3 18.18 C 0.93333 km/h
515 03-06-2020 10:00:00 20.725 C 10.74 g/m*3 20.73 C 2.66667 km/h
516 03-06-2020 11:00:00 23.15833 C 9.71 g/m*3 23.16 C 5.49167 km/h
517 03-06-2020 12:00:00 24.21667 C 9.51 g/m*3 24.22 C 7.10833 km/h
518 03-06-2020 13:00:00 25.38333 C 9.41 g/m*3 25.38 C 9.16667 km/h
519 03-06-2020 14:00:00 23.54167 C 9.43 g/m*3 23.54 C 12.35 km/h
520 03-06-2020 15:00:00 24.125 C 9.7 g/m*3 24.13 C 7.25 km/h
521 03-06-2020 16:00:00 26.66667 C 9.22 g/m*3 26.67 C 7.1 km/h
522 03-06-2020 17:00:00 26.85 C 9.53 g/m*3 26.85 C 6.58333 km/h
523 03-06-2020 18:00:00 25.325 C 9.57 g/m*3 25.33 C 4.80833 km/h
524 03-06-2020 19:00:00 25.55 C 10.07 g/m*3 25.55 C 3.74167 km/h
525 03-06-2020 20:00:00 24.35 C 9.88 g/m*3 24.35 C 3.46667 km/h
Sensor: Nr:Datum:Temp:Abs-Feuchte:Windchill:Wind:
Aussen-T/F 526 03-06-2020 21:00:00 21.14167 C 10.33 g/m*3 21.14 C 4.4 km/h
527 03-06-2020 22:00:00 18.875 C 10.19 g/m*3 18.88 C 4.275 km/h
528 03-06-2020 23:00:00 17.15833 C 10.27 g/m*3 17.16 C 2.4 km/h
529 04-06-2020 00:00:00 18.2 C 11.22 g/m*3 18.2 C 8.6 km/h
530 04-06-2020 01:00:00 17.51667 C 11.99 g/m*3 17.52 C 9.95833 km/h
531 04-06-2020 02:00:00 15.65 C 11.93 g/m*3 15.65 C 6.84167 km/h
532 04-06-2020 03:00:00 14.91667 C 11.82 g/m*3 14.92 C 0.66667 km/h
533 04-06-2020 04:00:00 14.79167 C 11.9 g/m*3 14.79 C 1.46667 km/h
534 04-06-2020 05:00:00 14.54167 C 11.73 g/m*3 14.54 C 0.93333 km/h
535 04-06-2020 06:00:00 14.3 C 11.67 g/m*3 14.3 C 0 km/h
536 04-06-2020 07:00:00 14.46667 C 11.82 g/m*3 14.47 C 0 km/h
537 04-06-2020 08:00:00 14.625 C 12.03 g/m*3 14.63 C 0 km/h
538 04-06-2020 09:00:00 14.93333 C 12.26 g/m*3 14.93 C 0 km/h
539 04-06-2020 10:00:00 15.125 C 12.4 g/m*3 15.13 C 0.26667 km/h
540 04-06-2020 11:00:00 15.8 C 12.92 g/m*3 15.8 C 1.06667 km/h
541 04-06-2020 12:00:00 15.80833 C 12.68 g/m*3 15.81 C 2.26667 km/h
542 04-06-2020 13:00:00 16.41667 C 12.45 g/m*3 16.42 C 5.49167 km/h
543 04-06-2020 14:00:00 15.34167 C 11.95 g/m*3 15.34 C 4.41667 km/h
544 04-06-2020 15:00:00 15.19167 C 11.92 g/m*3 15.19 C 7.11667 km/h
545 04-06-2020 16:00:00 15.1 C 11.69 g/m*3 15.1 C 7.65833 km/h
546 04-06-2020 17:00:00 14.625 C 11.19 g/m*3 14.63 C 11.675 km/h
547 04-06-2020 18:00:00 13.65 C 10.59 g/m*3 13.65 C 6.03333 km/h
548 04-06-2020 19:00:00 13.14167 C 10.57 g/m*3 13.14 C 1.73333 km/h
549 04-06-2020 20:00:00 12.75 C 10.33 g/m*3 12.75 C 3.475 km/h
550 04-06-2020 21:00:00 12.39167 C 9.96 g/m*3 12.39 C 5.08333 km/h
Sensor: Nr:Datum:Temp:Abs-Feuchte:Windchill:Wind:
Aussen-T/F 551 04-06-2020 22:00:00 11.69167 C 9.68 g/m*3 11.69 C 5.075 km/h
552 04-06-2020 23:00:00 11.16667 C 9.51 g/m*3 11.17 C 4.66667 km/h
553 05-06-2020 00:00:00 11.18333 C 9.38 g/m*3 11.18 C 4.95 km/h
554 05-06-2020 01:00:00 11.05 C 9.05 g/m*3 11.05 C 4.95 km/h
555 05-06-2020 02:00:00 11 C 8.62 g/m*3 10.75 C 5.5 km/h
556 05-06-2020 03:00:00 10.53333 C 8.54 g/m*3 10.53 C 2 km/h
557 05-06-2020 04:00:00 9.48333 C 8.16 g/m*3 9.48 C 3.46667 km/h
558 05-06-2020 05:00:00 8.925 C 8.17 g/m*3 8.93 C 1.33333 km/h
559 05-06-2020 06:00:00 9.375 C 8.37 g/m*3 9.38 C 2.66667 km/h
560 05-06-2020 07:00:00 10.14167 C 8.5 g/m*3 9.89 C 5.1 km/h
561 05-06-2020 08:00:00 10.775 C 8.61 g/m*3 10.25 C 6.45 km/h
562 05-06-2020 09:00:00 11.74167 C 8.83 g/m*3 11.74 C 9.275 km/h
563 05-06-2020 10:00:00 12.7 C 8.97 g/m*3 12.7 C 8.19167 km/h
564 05-06-2020 11:00:00 13.93333 C 8.79 g/m*3 13.93 C 13.83333 km/h
565 05-06-2020 12:00:00 14.4 C 8.8 g/m*3 14.4 C 11.55 km/h
566 05-06-2020 13:00:00 14.175 C 8.66 g/m*3 14.18 C 13.96667 km/h
567 05-06-2020 14:00:00 13.70833 C 9.3 g/m*3 13.71 C 13.41667 km/h
568 05-06-2020 15:00:00 13.725 C 10.11 g/m*3 13.73 C 11.14167 km/h
569 05-06-2020 16:00:00 12.61667 C 9.79 g/m*3 12.62 C 16.90833 km/h
570 05-06-2020 17:00:00 12.20833 C 9.91 g/m*3 12.21 C 9.81667 km/h
571 05-06-2020 18:00:00 11.525 C 9.24 g/m*3 11.53 C 11.675 km/h
572 05-06-2020 19:00:00 11.49167 C 9.33 g/m*3 11.49 C 8.325 km/h
573 05-06-2020 20:00:00 11.225 C 8.89 g/m*3 11.23 C 7.25 km/h
574 05-06-2020 21:00:00 10.4 C 8.51 g/m*3 9.28 C 9.00833 km/h
575 05-06-2020 22:00:00 10.15 C 8.27 g/m*3 8.89 C 9.53333 km/h
Sensor: Nr:Datum:Temp:Abs-Feuchte:Windchill:Wind:
Aussen-T/F 576 05-06-2020 23:00:00 9.8 C 8.1 g/m*3 8.68 C 8.45833 km/h
577 06-06-2020 00:00:00 9.66667 C 7.87 g/m*3 8.55 C 8.325 km/h
578 06-06-2020 01:00:00 9.15833 C 7.72 g/m*3 8.57 C 5.75 km/h
579 06-06-2020 02:00:00 8.34167 C 7.56 g/m*3 7.48 C 6.29167 km/h
580 06-06-2020 03:00:00 8.04167 C 7.62 g/m*3 8.04 C 3.33333 km/h
581 06-06-2020 04:00:00 8.53333 C 7.91 g/m*3 8.53 C 3.35 km/h
582 06-06-2020 05:00:00 8.6 C 7.89 g/m*3 8.6 C 1.46667 km/h
583 06-06-2020 06:00:00 8.96667 C 8.18 g/m*3 8.97 C 3.46667 km/h
584 06-06-2020 07:00:00 10.39167 C 8.67 g/m*3 8.85 C 11.55833 km/h
585 06-06-2020 08:00:00 11.35833 C 8.74 g/m*3 11.36 C 10.20833 km/h
586 06-06-2020 09:00:00 12.55 C 8.96 g/m*3 12.55 C 14.23333 km/h
587 06-06-2020 10:00:00 13.29167 C 9.33 g/m*3 13.29 C 11.40833 km/h
588 06-06-2020 11:00:00 12.6 C 9.97 g/m*3 12.6 C 2.68333 km/h
589 06-06-2020 12:00:00 12.73333 C 10.04 g/m*3 12.73 C 9.525 km/h
590 06-06-2020 13:00:00 12.55833 C 9.72 g/m*3 12.56 C 6.7 km/h
591 06-06-2020 14:00:00 14.05 C 10.01 g/m*3 14.05 C 9.675 km/h
592 06-06-2020 15:00:00 15.2 C 10.42 g/m*3 15.2 C 8.89167 km/h
593 06-06-2020 16:00:00 17.225 C 10.34 g/m*3 17.23 C 14.76667 km/h
594 06-06-2020 17:00:00 16.93333 C 9.2 g/m*3 16.93 C 11.14167 km/h
595 06-06-2020 18:00:00 17.64167 C 8.49 g/m*3 17.64 C 15.96667 km/h
596 06-06-2020 19:00:00 18.29167 C 8.2 g/m*3 18.29 C 11.425 km/h
597 06-06-2020 20:00:00 17.20833 C 8.89 g/m*3 17.21 C 5.35 km/h
598 06-06-2020 21:00:00 13.58333 C 8.84 g/m*3 13.58 C 4.8 km/h
599 06-06-2020 22:00:00 11.725 C 8.71 g/m*3 11.73 C 1.73333 km/h
600 06-06-2020 23:00:00 10.59167 C 8.43 g/m*3 10.59 C 1.33333 km/h
Sensor: Nr:Datum:Temp:Abs-Feuchte:Windchill:Wind:
Aussen-T/F 601 07-06-2020 00:00:00 10.18333 C 8.2 g/m*3 10.18 C 0.93333 km/h
602 07-06-2020 01:00:00 9.99167 C 8.19 g/m*3 9.99 C 1.2 km/h
603 07-06-2020 02:00:00 10.05833 C 8.14 g/m*3 10.06 C 1.86667 km/h
604 07-06-2020 03:00:00 9.74167 C 7.93 g/m*3 9.74 C 1.86667 km/h
605 07-06-2020 04:00:00 8.425 C 7.54 g/m*3 8.43 C 1.33333 km/h
606 07-06-2020 05:00:00 8.08333 C 7.62 g/m*3 8.08 C 3.2 km/h
607 07-06-2020 06:00:00 7.70833 C 7.48 g/m*3 7.71 C 1.46667 km/h
608 07-06-2020 07:00:00 7.85 C 7.67 g/m*3 7.85 C 0 km/h
609 07-06-2020 08:00:00 9.98333 C 8.17 g/m*3 9.24 C 6.85833 km/h
610 07-06-2020 09:00:00 13.76667 C 8.38 g/m*3 13.77 C 13.96667 km/h
611 07-06-2020 10:00:00 14.80833 C 8.63 g/m*3 14.81 C 14.23333 km/h
612 07-06-2020 11:00:00 15.09167 C 8.88 g/m*3 15.09 C 9.94167 km/h
613 07-06-2020 12:00:00 15.89167 C 9 g/m*3 15.89 C 12.9 km/h
614 07-06-2020 13:00:00 16.40833 C 8.9 g/m*3 16.41 C 12.49167 km/h
615 07-06-2020 14:00:00 17.06667 C 9.13 g/m*3 17.07 C 10.88333 km/h
616 07-06-2020 15:00:00 18.48333 C 9.34 g/m*3 18.48 C 11.96667 km/h
617 07-06-2020 16:00:00 17.89167 C 9.04 g/m*3 17.89 C 9.28333 km/h
618 07-06-2020 17:00:00 19.675 C 8.12 g/m*3 19.68 C 8.2 km/h
619 07-06-2020 18:00:00 18.925 C 8.06 g/m*3 18.93 C 6.15833 km/h
620 07-06-2020 19:00:00 18.65 C 9.21 g/m*3 18.65 C 1.60833 km/h
621 07-06-2020 20:00:00 16.225 C 9.29 g/m*3 16.23 C 6.70833 km/h
622 07-06-2020 21:00:00 13.73333 C 8.95 g/m*3 13.73 C 4.68333 km/h
623 07-06-2020 22:00:00 11.675 C 8.66 g/m*3 11.68 C 0.66667 km/h
624 07-06-2020 23:00:00 11.25 C 8.64 g/m*3 11.25 C 2.14167 km/h
625 08-06-2020 00:00:00 11.44167 C 8.77 g/m*3 11.44 C 1.2 km/h
Sensor: Nr:Datum:Temp:Abs-Feuchte:Windchill:Wind:
Aussen-T/F 626 08-06-2020 01:00:00 11.475 C 9.06 g/m*3 11.48 C 1.06667 km/h
627 08-06-2020 02:00:00 9.91667 C 8.4 g/m*3 9.92 C 2.53333 km/h
628 08-06-2020 03:00:00 8.93333 C 8.07 g/m*3 8.93 C 0.53333 km/h
629 08-06-2020 04:00:00 8.85 C 8.16 g/m*3 8.85 C 0.26667 km/h
630 08-06-2020 05:00:00 8.21667 C 7.83 g/m*3 8.22 C 0.26667 km/h
631 08-06-2020 06:00:00 8.375 C 8.02 g/m*3 8.38 C 0.66667 km/h
632 08-06-2020 07:00:00 9.75 C 8.66 g/m*3 9.75 C 4.41667 km/h
633 08-06-2020 08:00:00 11.425 C 9.12 g/m*3 11.43 C 4.26667 km/h
634 08-06-2020 09:00:00 13.40833 C 9.63 g/m*3 13.41 C 2.4 km/h
635 08-06-2020 10:00:00 15.5 C 9.95 g/m*3 15.5 C 4.81667 km/h
636 08-06-2020 11:00:00 17.18333 C 9.79 g/m*3 17.18 C 4.53333 km/h
637 08-06-2020 12:00:00 18.41667 C 9.33 g/m*3 18.42 C 8.04167 km/h
638 08-06-2020 13:00:00 19.30833 C 8.88 g/m*3 19.31 C 10.21667 km/h
639 08-06-2020 14:00:00 20.44167 C 8.14 g/m*3 20.44 C 9.15 km/h
640 08-06-2020 15:00:00 20.24167 C 8.44 g/m*3 20.24 C 8.2 km/h
641 08-06-2020 16:00:00 19.475 C 8.92 g/m*3 19.48 C 6.425 km/h
642 08-06-2020 17:00:00 20.60833 C 9.07 g/m*3 20.61 C 2.4 km/h
643 08-06-2020 18:00:00 20.725 C 9.34 g/m*3 20.73 C 6.725 km/h
644 08-06-2020 19:00:00 19.80833 C 9.27 g/m*3 19.81 C 4.55 km/h
645 08-06-2020 20:00:00 18.53333 C 9.49 g/m*3 18.53 C 6.975 km/h
646 08-06-2020 21:00:00 16.11667 C 9.67 g/m*3 16.12 C 8.59167 km/h
647 08-06-2020 22:00:00 13.8 C 9.17 g/m*3 13.8 C 2.66667 km/h
648 08-06-2020 23:00:00 12.05833 C 8.82 g/m*3 12.06 C 4.26667 km/h
649 09-06-2020 00:00:00 11.575 C 8.86 g/m*3 11.58 C 5.475 km/h
650 09-06-2020 01:00:00 10.75833 C 8.71 g/m*3 10.76 C 0.8 km/h
Sensor: Nr:Datum:Temp:Abs-Feuchte:Windchill:Wind:
Aussen-T/F 651 09-06-2020 02:00:00 9.975 C 8.55 g/m*3 9.98 C 0.13333 km/h
652 09-06-2020 03:00:00 9.8 C 8.61 g/m*3 9.8 C 0.53333 km/h
653 09-06-2020 04:00:00 9.89167 C 8.78 g/m*3 9.89 C 2.26667 km/h
654 09-06-2020 05:00:00 10.7 C 9.33 g/m*3 10.7 C 3.2 km/h
655 09-06-2020 06:00:00 11.39167 C 9.72 g/m*3 11.39 C 1.06667 km/h
656 09-06-2020 07:00:00 11.85833 C 9.86 g/m*3 11.86 C 1.46667 km/h
657 09-06-2020 08:00:00 12.5 C 10.05 g/m*3 12.5 C 3.60833 km/h
658 09-06-2020 09:00:00 13.3 C 10.21 g/m*3 13.3 C 4.66667 km/h
659 09-06-2020 10:00:00 15.29167 C 10.65 g/m*3 15.29 C 5.08333 km/h
660 09-06-2020 11:00:00 16.95 C 10.93 g/m*3 16.95 C 8.88333 km/h
661 09-06-2020 12:00:00 18.35 C 11.16 g/m*3 18.35 C 9.68333 km/h
662 09-06-2020 13:00:00 18.45 C 12.76 g/m*3 18.45 C 5.9 km/h
663 09-06-2020 14:00:00 18.38333 C 12.18 g/m*3 18.38 C 10.75 km/h
664 09-06-2020 15:00:00 17.875 C 11.43 g/m*3 17.88 C 8.58333 km/h
665 09-06-2020 16:00:00 15.875 C 12.08 g/m*3 15.88 C 3.20833 km/h
666 09-06-2020 17:00:00 16.05833 C 12.64 g/m*3 16.06 C 1.06667 km/h
667 09-06-2020 18:00:00 16.35 C 12.77 g/m*3 16.35 C 0.53333 km/h
668 09-06-2020 19:00:00 15.59167 C 12.23 g/m*3 15.59 C 2.26667 km/h
669 09-06-2020 20:00:00 14.39167 C 11.54 g/m*3 14.39 C 5.75 km/h
670 09-06-2020 21:00:00 14.13333 C 11.55 g/m*3 14.13 C 5.33333 km/h
671 09-06-2020 22:00:00 13.4 C 11.02 g/m*3 13.4 C 4.26667 km/h
672 09-06-2020 23:00:00 12.96667 C 10.81 g/m*3 12.97 C 4.13333 km/h
673 10-06-2020 00:00:00 12.9 C 10.79 g/m*3 12.9 C 0.8 km/h
674 10-06-2020 01:00:00 12.56667 C 10.58 g/m*3 12.57 C 0.66667 km/h
675 10-06-2020 02:00:00 12.30833 C 10.43 g/m*3 12.31 C 0.66667 km/h
Sensor: Nr:Datum:Temp:Abs-Feuchte:Windchill:Wind:
Aussen-T/F 676 10-06-2020 03:00:00 12.56667 C 10.6 g/m*3 12.57 C 0 km/h
677 10-06-2020 04:00:00 12.6 C 10.62 g/m*3 12.6 C 0.13333 km/h
678 10-06-2020 05:00:00 12.68333 C 10.68 g/m*3 12.68 C 0 km/h
679 10-06-2020 06:00:00 12.95 C 10.97 g/m*3 12.95 C 0.13333 km/h
680 10-06-2020 07:00:00 13.375 C 11.21 g/m*3 13.38 C 0.4 km/h
681 10-06-2020 08:00:00 13.85833 C 11.46 g/m*3 13.86 C 0.26667 km/h
682 10-06-2020 09:00:00 14.83333 C 11.68 g/m*3 14.83 C 2.53333 km/h
683 10-06-2020 10:00:00 15.54167 C 11.58 g/m*3 15.54 C 3.06667 km/h
684 10-06-2020 11:00:00 15.75 C 11.63 g/m*3 15.75 C 1.73333 km/h
685 10-06-2020 12:00:00 15.475 C 11.31 g/m*3 15.48 C 8.06667 km/h
686 10-06-2020 13:00:00 15.55 C 11.25 g/m*3 15.55 C 8.475 km/h
687 10-06-2020 14:00:00 16.36667 C 11.02 g/m*3 16.37 C 4.13333 km/h
688 10-06-2020 15:00:00 17.1 C 11.1 g/m*3 17.1 C 1.20833 km/h
689 10-06-2020 16:00:00 18.65 C 11.47 g/m*3 18.65 C 3.6 km/h
690 10-06-2020 17:00:00 19.625 C 11.44 g/m*3 19.63 C 4.40833 km/h
691 10-06-2020 18:00:00 19.81667 C 10.94 g/m*3 19.82 C 7.65 km/h
692 10-06-2020 19:00:00 19.275 C 11.97 g/m*3 19.27 C 1.34167 km/h
693 10-06-2020 20:00:00 18.49167 C 12.47 g/m*3 18.49 C 0.8 km/h
694 10-06-2020 21:00:00 16.675 C 11.26 g/m*3 16.68 C 4.40833 km/h
695 10-06-2020 22:00:00 15.41667 C 10.78 g/m*3 15.42 C 2.66667 km/h
696 10-06-2020 23:00:00 15.225 C 11.02 g/m*3 15.23 C 1.875 km/h
697 11-06-2020 00:00:00 15.3 C 11.25 g/m*3 15.3 C 1.73333 km/h
698 11-06-2020 01:00:00 14.2 C 11.02 g/m*3 14.2 C 0.53333 km/h
699 11-06-2020 02:00:00 13.84167 C 11.03 g/m*3 13.84 C 0 km/h
700 11-06-2020 03:00:00 13.38333 C 10.8 g/m*3 13.38 C 0.4 km/h
Sensor: Nr:Datum:Temp:Abs-Feuchte:Windchill:Wind:
Aussen-T/F 701 11-06-2020 04:00:00 12.775 C 10.49 g/m*3 12.78 C 0.4 km/h
702 11-06-2020 05:00:00 12.35833 C 10.27 g/m*3 12.36 C 0.26667 km/h
703 11-06-2020 06:00:00 12.74167 C 10.6 g/m*3 12.74 C 0 km/h
704 11-06-2020 07:00:00 13.425 C 11.09 g/m*3 13.43 C 0.26667 km/h
705 11-06-2020 08:00:00 14.05 C 11.46 g/m*3 14.05 C 0 km/h
706 11-06-2020 09:00:00 14.73333 C 11.75 g/m*3 14.73 C 1.6 km/h
707 11-06-2020 10:00:00 15.5 C 12.03 g/m*3 15.5 C 1.86667 km/h
708 11-06-2020 11:00:00 16.90833 C 12.27 g/m*3 16.91 C 4.13333 km/h
709 11-06-2020 12:00:00 17.45 C 11.87 g/m*3 17.45 C 4.54167 km/h
710 11-06-2020 13:00:00 18.38333 C 11.94 g/m*3 18.38 C 5.76667 km/h
711 11-06-2020 14:00:00 19.3 C 11.79 g/m*3 19.3 C 6.98333 km/h
712 11-06-2020 15:00:00 18.73333 C 12.03 g/m*3 18.73 C 3.21667 km/h
713 11-06-2020 16:00:00 18.99167 C 11.05 g/m*3 18.99 C 6.28333 km/h
714 11-06-2020 17:00:00 19.18333 C 11.33 g/m*3 19.18 C 4.68333 km/h
715 11-06-2020 18:00:00 18.20833 C 12.45 g/m*3 18.21 C 0.8 km/h
716 11-06-2020 19:00:00 17.66667 C 12.01 g/m*3 17.67 C 2.13333 km/h
717 11-06-2020 20:00:00 17.14167 C 12.37 g/m*3 17.14 C 0 km/h
718 11-06-2020 21:00:00 15.93333 C 11.65 g/m*3 15.93 C 0 km/h
719 11-06-2020 22:00:00 14.25833 C 10.93 g/m*3 14.26 C 1.73333 km/h
720 11-06-2020 23:00:00 13.35833 C 10.62 g/m*3 13.36 C 0.66667 km/h
721 12-06-2020 00:00:00 12.45 C 10.19 g/m*3 12.45 C 0 km/h
722 12-06-2020 01:00:00 11.73333 C 9.85 g/m*3 11.73 C 0 km/h
723 12-06-2020 02:00:00 11.2 C 9.62 g/m*3 11.2 C 0 km/h
724 12-06-2020 03:00:00 10.61667 C 9.28 g/m*3 10.62 C 0 km/h
725 12-06-2020 04:00:00 10.34167 C 9.19 g/m*3 10.34 C 0 km/h
Sensor: Nr:Datum:Temp:Abs-Feuchte:Windchill:Wind:
Aussen-T/F 726 12-06-2020 05:00:00 10.80833 C 9.51 g/m*3 10.81 C 0 km/h
727 12-06-2020 06:00:00 11.74167 C 10.17 g/m*3 11.74 C 1.2 km/h
728 12-06-2020 07:00:00 12.51667 C 10.68 g/m*3 12.52 C 0.13333 km/h
729 12-06-2020 08:00:00 13.81667 C 11.56 g/m*3 13.82 C 1.86667 km/h
730 12-06-2020 09:00:00 16.06667 C 12.49 g/m*3 16.07 C 7.525 km/h
731 12-06-2020 10:00:00 18.14167 C 12.88 g/m*3 18.14 C 11.29167 km/h
732 12-06-2020 11:00:00 20.41667 C 13.52 g/m*3 20.42 C 8.33333 km/h
733 12-06-2020 12:00:00 22.34167 C 13.92 g/m*3 22.34 C 10.08333 km/h
734 12-06-2020 13:00:00 24.48333 C 13.15 g/m*3 24.48 C 11.95833 km/h
735 12-06-2020 14:00:00 26.18333 C 12.22 g/m*3 26.18 C 10.89167 km/h
736 12-06-2020 15:00:00 27.825 C 11.85 g/m*3 27.83 C 13.03333 km/h
737 12-06-2020 16:00:00 29.69167 C 11.63 g/m*3 29.69 C 11.55833 km/h
738 12-06-2020 17:00:00 29.5 C 11.36 g/m*3 29.5 C 12.49167 km/h
739 12-06-2020 18:00:00 29.59167 C 11.4 g/m*3 29.59 C 10.75833 km/h
740 12-06-2020 19:00:00 28.31667 C 12.04 g/m*3 28.32 C 6.84167 km/h
741 12-06-2020 20:00:00 26.89167 C 13.73 g/m*3 26.89 C 4.53333 km/h
742 12-06-2020 21:00:00 22.31667 C 13.19 g/m*3 22.32 C 5.35833 km/h
743 12-06-2020 22:00:00 20.35833 C 12.94 g/m*3 20.36 C 4.14167 km/h
744 12-06-2020 23:00:00 18.75 C 12.79 g/m*3 18.75 C 1.2 km/h

Maximal/Minimal-Werte vom 14.04.2020 - 16.05.2020

Sensor Min Max Avg
Temp
(Aussen-T/F)
-0.1 °C
15-04-2020  06:55:00
26.2 °C
17-04-2020  18:05:00
11.98 °C

Die Daten stammen von einer Davis Vantage Pro 2 Wetter-Station und werden unter Linux mit der Software wview2wettercgi und aufbereitet. Alle Angaben erfolgen ohne Gewähr für ihre Vollständigkeit oder Richtigkeit.
Kontakt: Rainer Krienke krienke@uni-koblenz.de . Meine Webseiten an der Uni Koblenz oder privat.
Version: $Revision: 0.78 $